User: anonymous   Login
Location: ???????
(55.9142°N, 37.8256°E)
Time: 16:37:07
(UTC+00:00)
Language:

Cosmos 1536 - Orbit

View from above orbital plane
View from above orbital plane
View from above satellite
View from above satellite

Ground track
Ground track

The orbit data is extracted from the following two-line orbital elements,

1 14699U 84013A   24165.93690997  .00003821  00000-0  21556-3 0  9991
2 14699  82.5500  12.4459 0017707 336.1170  23.9237 15.12753650176442
Epoch (UTC): 13 June 2024 22:29:09
Eccentricity: 0.0017707
inclination: 82.5500°
perigee height: 515 km
apogee height: 540 km
right ascension of ascending node: 12.4459°
argument of perigee: 336.1170°
revolutions per day: 15.12753650
mean anomaly at epoch: 23.9237°
orbit number at epoch: 17644

The dashed part of the orbit path shows where the satellite is in the earth's shadow,  

DLR